Regional Weather Roundup
Issued by NWS

Home | Current Version | Previous Version | Text Only | Print | Product List | Glossary On
Versions: 1 2 3 4 5 6 7 8 9 10 11 12 13 14 15 16 17 18 19 20 21 22 23 24 25 26 27 28 29 30 31 32 33 34 35 36 37 38 39 40 41 42 43 44 45 46 47 48 49 50
000
ASUS44 KLIX 220913
RWRLA
LOUISIANA WEATHER ROUNDUP
NATIONAL WEATHER SERVICE NEW ORLEANS LA
400 AM CDT SAT JUL 22 2017

NOTE: "FAIR" INDICATES FEW OR NO CLOUDS BELOW 12,000 FEET WITH NO
      SIGNIFICANT WEATHER AND/OR OBSTRUCTIONS TO VISIBILITY.
      SKY/WX - SKY CONDITION AND SIGNIFICANT WEATHER.
      TMP - AIR TEMPERATURE.    DP   - DEWPOINT TEMPERATURE.
      RH  - RELATIVE HUMIDITY.  PRES - PRESSURE.
      HX  - HEAT INDEX.         WCI  - WIND CHILL INDEX.

*  THESE STATIONS ARE NOT NWS OR FAA STATIONS AND ARE NOT UNDER
   NWS QUALITY CONTROL.

LAZ040-048-061>063-065-066-069-221000-
SOUTHEAST LOUISIANA

CITY           SKY/WX    TMP DP  RH WIND       PRES   REMARKS
N.O. INTL ARPT CLOUDY    79  78  97 CALM      29.98S
N.O. LAKEFRONT MOCLDY    83  77  82 CALM      29.98S
N.O. DOWNTOWN*   N/A     82  77  84 CALM        N/A  THUNDER
RESERVE*       FAIR      78  75  92 CALM      29.98S FOG
SLIDELL        CLEAR     74  71  91 CALM      29.98S
BATON ROUGE    CLEAR     74  72  93 CALM      29.98S
BOOTHVILLE     NOT AVBL
BELLE CHASSE   NOT AVBL
BOGALUSA*      FAIR      73  70  89 CALM      30.00S
GALLIANO*      MOSUNNY   76  73  91 CALM      29.97F FOG
NEW ROADS*     FAIR      74  73  96 CALM      29.98F
GONZALES*      FAIR      74  73  97 CALM      29.98R
HAMMOND*       PTCLDY    73  70  88 CALM      29.98F
HOUMA*         NOT AVBL
PORT FOURCHON* MOSUNNY   84  75  74 SW7       29.98R

$$

LAZ041-044-053-054-221000-
SOUTHWEST LOUISIANA

CITY           SKY/WX    TMP DP  RH WIND       PRES   REMARKS
LAKE CHARLES   PTCLDY    80  77  90 CALM      29.95F
LAFAYETTE      CLEAR     76  76 100 CALM      29.98S
PATTERSON      CLOUDY    75  72  90 SW6       29.98F
SALT POINT       N/A     77  74  90 CALM      29.95F
NEW IBERIA     CLEAR     76  74  93 SE3       29.98S
CHENAULT AIRPK PTCLDY    77  77  98 CALM      29.97S

$$

LAZ027-028-221000-
CENTRAL LOUISIANA

CITY           SKY/WX    TMP DP  RH WIND       PRES   REMARKS
FORT POLK      PTCLDY    75  73  94 CALM      29.96S
ALEXANDRIA INT MOCLDY    75  74  96 S6        29.95S FOG
ALEXANDRIA     CLOUDY    75  74  96 CALM      29.97S

$$

LAZ001-002-221000-
NORTHWEST LOUISIANA

CITY           SKY/WX    TMP DP  RH WIND       PRES   REMARKS
SHREVEPORT     PTCLDY    78  75  90 S3        29.94S
BARKSDALE AFB  CLEAR     80  74  84 CALM      29.94R
DTN SHREVEPORT CLEAR     81  74  79 SW6       29.94S

$$

LAZ014-016-221000-
NORTHEAST LOUISIANA

CITY           SKY/WX    TMP DP  RH WIND       PRES   REMARKS
MONROE         PTCLDY    77  74  90 SW3       29.96S
TALLULAH       CLEAR     74  72  93 CALM      29.96S

$$




USA.gov is the U.S. government's official web portal to all federal, state and local government web resources and services.